Regional Weather Roundup
Issued by NWS

Home | Current Version | Previous Version | Text Only | Print | Product List | Glossary Off
Versions: 1 2 3 4 5 6 7 8 9 10 11 12 13 14 15 16 17 18 19 20 21 22 23 24 25 26 27 28 29 30 31 32 33 34 35 36 37 38 39 40 41 42 43 44 45 46 47 48 49 50

000
ASUS43 KBIS 212202
RWRND

NORTH DAKOTA REGIONAL WEATHER ROUNDUP
NATIONAL WEATHER SERVICE BISMARCK ND
400 PM CST SAT JAN 21 2017

NOTE: "FAIR" INDICATES FEW OR NO CLOUDS BELOW 12,000 FEET WITH NO
SIGNIFICANT WEATHER AND/OR OBSTRUCTIONS TO VISIBILITY.


NDZ001>003-009>011-017-212300-
NORTHWEST NORTH DAKOTA

CITY           SKY/WX    TMP DP  RH WIND       PRES   REMARKS
WILLISTON      FAIR      32  26  78 W10       29.42R
MINOT          CLOUDY    29  26  89 SW8       29.40R FOG
MINOT AFB      CLOUDY    28  26  91 SW3       29.40R
$$

NDZ018>021-031>035-040>046-212300-
SOUTHWEST NORTH DAKOTA

CITY           SKY/WX    TMP DP  RH WIND       PRES   REMARKS
BISMARCK       CLOUDY    32  29  88 W3        29.43R
DICKINSON      FAIR      33  26  75 W16       29.39R
GARRISON         N/A     25  24  96 SW3       29.41R
HETTINGER ARPT SUNNY     32  25  75 W13       29.43R
$$

NDZ004>008-012>016-024-026-027-054-212300-
NORTHEAST NORTH DAKOTA

CITY           SKY/WX    TMP DP  RH WIND       PRES   REMARKS
GRAND FORKS    CLOUDY    36  32  85 E6        29.45R
GRND FRKS AFB  CLOUDY    35  34  96 E3        29.46R
DEVILS LAKE    LGT RAIN  33  33 100 CALM      29.43R FOG
$$

NDZ022-023-025-028>030-036>039-047>053-212300-
SOUTHEAST NORTH DAKOTA

CITY           SKY/WX    TMP DP  RH WIND       PRES   REMARKS
FARGO          CLOUDY    39  35  86 NE3       29.44R
JAMESTOWN      FOG       33  33 100 W8        29.41R VSB 3/4
$$





USA.gov is the U.S. government's official web portal to all federal, state and local government web resources and services.